Cloud_Cover
42 97 100 100 100 100 100 84 100 100 100 100 92 68 5 87 100 100 99 100 92 86 44 10 100 5 65 10 5 24 54 63 91 100 23 100 100 66 100 100 100 100 100 100
16 73 87 100 100 100 100 98 74 7 4 100 89 100 100 100 100 53 13 89 75 90 7 97 19 37 5 8 5 54 10 43 19 38 100 100 99 97 73 42 90 94 100 100
98 100 100 100 90 100 45 100 100 100 63 100 100 100 100 73 100 98 100 36 67 72 100 100 38 5 5 6 5 5 7 5 23 100 70 100 100 69 74 6 36 100 93 29
99 85 99 81 100 100 90 100 90 100 98 100 100 100 100 100 100 100 100 100 7 10 100 100 26 5 33 8 4 5 31 5 5 44 86 100 100 100 93 84 44 100 100 100
95 100 100 100 86 15 46 92 51 78 97 81 100 27 100 100 100 100 100 100 76 100 97 55 2 0 98 16 0 29 69 5 5 5 66 74 69 94 100 37 21 5 100 58
100 88 100 100 100 100 100 90 56 32 100 100 8 14 100 100 100 100 100 90 95 5 8 2 1 4 98 74 42 5 5 5 5 51 15 99 49 67 57 28 5 14 7 3
96 100 100 100 100 73 23 92 65 69 98 43 67 56 100 100 100 100 100 100 86 88 15 5 4 0 25 6 88 5 5 5 5 5 5 65 41 37 52 4 0 40 3 16
100 97 100 100 96 68 65 74 100 100 98 95 28 84 100 95 100 100 100 44 5 5 5 4 13 2 0 2 45 85 5 18 5 5 5 18 22 5 3 0 0 0 87 9
100 59 94 100 77 62 100 100 95 100 95 100 95 100 100 100 99 51 5 6 88 8 0 0 0 22 2 6 93 18 5 5 5 5 2 5 3 0 0 0 0 0 1 0
100 98 96 100 100 100 100 100 100 99 100 100 90 100 93 100 100 96 0 2 1 0 0 0 0 0 23 43 14 6 1 3 4 2 1 0 5 1 4 3 24 27 5 5
100 100 100 77 98 100 97 5 100 100 100 100 94 100 95 100 100 55 3 0 0 0 0 0 0 0 0 15 19 5 0 0 0 0 0 4 5 1 1 16 92 90 68 29
100 99 100 100 82 100 63 100 91 47 96 98 35 100 100 100 34 18 3 0 0 0 0 0 0 0 0 0 0 0 0 0 0 0 3 64 14 5 34 21 53 19 4 0
3 5 49 65 100 100 66 48 99 100 100 97 56 94 100 6 28 6 3 0 0 0 0 0 0 0 0 3 32 5 4 0 0 5 100 78 5 38 78 77 7 5 4 0
100 100 95 100 90 99 100 100 100 91 100 52 81 65 79 82 91 48 0 0 0 0 0 60 74 42 5 3 18 57 5 0 3 72 45 5 5 6 83 43 10 36 1 0
16 25 13 100 90 77 69 53 80 3 100 99 91 97 55 73 100 96 0 0 0 0 21 100 100 100 54 25 9 5 4 4 84 94 100 89 26 94 69 95 85 31 4 0
0 0 0 98 11 100 100 82 100 82 100 97 66 2 96 73 100 13 0 0 0 0 4 100 100 100 0 7 40 27 54 6 70 43 18 6 28 35 100 30 10 5 2 0
7 31 0 3 84 100 62 88 100 89 100 79 37 17 2 99 33 5 0 0 0 0 0 3 70 32 5 11 85 100 94 90 19 60 18 22 87 95 72 62 88 68 17 55
84 60 58 33 7 2 82 50 4 29 93 54 3 63 3 7 2 0 0 0 0 0 0 0 0 27 99 26 99 100 100 95 100 91 97 100 100 100 100 100 100 100 100 100
0 63 100 100 100 99 95 81 84 83 52 73 100 98 100 16 4 0 0 0 0 0 0 0 0 25 20 97 100 99 97 100 100 100 100 100 100 100 100 100 100 100 98 48
12 13 53 4 1 0 39 19 77 100 100 100 100 100 100 72 6 8 4 43 0 0 0 0 0 23 1 77 100 100 100 100 20 100 100 100 100 100 100 93 1 0 5 0
100 81 67 95 58 2 99 100 100 100 100 100 100 100 100 33 0 2 2 97 100 100 0 0 0 0 0 0 36 49 100 100 99 100 100 100 100 97 4 0 0 5 8 4
0 62 100 100 100 96 55 100 53 87 100 100 100 98 99 100 91 0 0 3 38 36 0 0 0 0 0 0 0 3 75 100 100 100 100 55 12 2 0 0 5 5 7 10
0 0 84 78 12 87 1 2 5 1 85 100 100 100 100 5 2 0 0 3 5 5 0 0 0 0 0 0 0 0 23 3 0 3 0 0 0 0 0 7 5 6 81 5
0 0 0 0 3 0 0 1 3 0 0 1 14 79 5 0 0 3 22 91 98 24 5 0 0 0 0 0 0 0 0 0 0 0 0 0 0 0 0 46 100 100 76 84
0 0 0 0 2 0 0 1 0 0 0 0 0 0 0 0 45 6 88 55 96 36 7 2 0 0 0 3 0 0 0 0 0 0 0 0 4 4 1 23 100 100 68 5
0 0 0 0 0 0 0 0 0 0 0 0 0 0 0 0 20 100 100 100 79 88 44 0 0 1 0 0 0 0 0 0 0 0 0 0 28 5 88 100 100 37 5 5